Weather History for KSGH - September, 2013

Change the Weather History Date:

Monday, September 23, 2013

  Actual Average (KDAY) Record (KDAY)
Temperature  
Mean Temperature 54 °F 62 °F  
Max Temperature 68 °F 73 °F 93 °F (2010)
Min Temperature 41 °F 52 °F 32 °F (1974)
Degree Days  
Heating Degree Days 10 4  
Month to date heating degree days 48  
Since 1 July heating degree days 50  
Cooling Degree Days 0 2  
Month to date cooling degree days 88  
Year to date cooling degree days 870  
Growing Degree Days 4 (Base 50)    
Moisture  
Dew Point 45 °F    
Average Humidity 77    
Maximum Humidity 100    
Minimum Humidity 44    
Precipitation  
Precipitation 0.00 in 0.11 in 2.31 in (1955)
Month to date precipitation 2.56  
Year to date precipitation 30.87  
Snow  
Snow 0.00 in 0.00 in - ()
Month to date snowfall 0.0  
Since 1 July snowfall 0.0  
Since 1 September snowfall 0.0  
Snow Depth -    
Sea Level Pressure  
Sea Level Pressure 30.11 in    
Wind  
Wind Speed 5 mph (ESE)    
Max Wind Speed 10 mph    
Max Gust Speed 17 mph    
Visibility 8 miles    
Events      
T = Trace of Precipitation, MM = Missing Value Source: NWS Daily Summary

Daily Weather History Graph

Daily Weather History Graph

Search for Another Location

Airport or City:

Trip Planner

Search our weather history database for the weather conditions in past years. The results will help you decide how hot, cold, wet, or windy it might be!

Date:

Astronomy

Sep. 23, 2013 Rise Set
Actual Time 7:24 AM EDT 7:30 PM EDT
Civil Twilight 6:57 AM EDT 7:57 PM EDT
Nautical Twilight 6:25 AM EDT 8:28 PM EDT
Astronomical Twilight 5:53 AM EDT 9:00 PM EDT
Moon 10:02 PM EDT (9/23) 11:41 AM EDT (9/23)
Length of Visible Light 13h 00m
Length of Day
12h 06m
Waning Gibbous, 81% of the Moon is Illuminated
Sep 23
Waning Gibbous
Sep 26
Last Quarter
Oct 4
New
Oct 11
First Quarter
Oct 18
Full

Hourly Weather History & Observations

Time (EDT) Temp. Windchill Dew Point Humidity Pressure Visibility Wind Dir Wind Speed Gust Speed Precip Events Conditions
12:56 AM 45.0 °F 41.8 °F 43.0 °F 93% 30.07 in 9.0 mi SE 5.8 mph - N/A   Clear
1:56 AM 45.0 °F 42.6 °F 43.0 °F 93% 30.07 in 8.0 mi SE 4.6 mph - N/A   Clear
2:56 AM 43.9 °F - 43.0 °F 97% 30.08 in 8.0 mi Calm Calm - N/A   Clear
3:56 AM 43.9 °F - 43.0 °F 97% 30.08 in 8.0 mi Calm Calm - N/A   Clear
4:56 AM 41.9 °F 39.0 °F 41.9 °F 100% 30.08 in 8.0 mi SE 4.6 mph - N/A   Clear
5:56 AM 41.9 °F 40.0 °F 41.9 °F 100% 30.09 in 8.0 mi SSE 3.5 mph - N/A   Clear
6:56 AM 41.9 °F 40.0 °F 41.9 °F 100% 30.11 in 8.0 mi SSE 3.5 mph - N/A   Clear
7:56 AM 41.9 °F 40.0 °F 41.9 °F 100% 30.14 in 6.0 mi SSE 3.5 mph - N/A   Clear
8:56 AM 50.0 °F - 46.9 °F 89% 30.15 in 6.0 mi SE 5.8 mph - N/A   Clear
9:56 AM 54.9 °F - 48.9 °F 80% 30.16 in 8.0 mi ESE 8.1 mph - N/A   Clear
10:56 AM 59.0 °F - 46.9 °F 64% 30.16 in 8.0 mi East 9.2 mph 17.3 mph N/A   Clear
11:56 AM 59.9 °F - 46.9 °F 62% 30.16 in 8.0 mi SE 6.9 mph - N/A   Mostly Cloudy
12:56 PM 63.9 °F - 45.9 °F 52% 30.15 in 8.0 mi SE 4.6 mph - N/A   Partly Cloudy
1:56 PM 65.8 °F - 46.9 °F 50% 30.13 in 7.0 mi ESE 6.9 mph 16.1 mph N/A   Clear
2:56 PM 68.0 °F - 46.9 °F 47% 30.12 in 7.0 mi ENE 10.4 mph - N/A   Clear
3:56 PM 68.0 °F - 45.9 °F 45% 30.11 in 8.0 mi Variable 3.5 mph - N/A   Clear
4:56 PM 68.9 °F - 45.9 °F 44% 30.10 in 7.0 mi East 8.1 mph - N/A   Clear
5:56 PM 66.9 °F - 45.9 °F 47% 30.09 in 8.0 mi East 8.1 mph - N/A   Clear
6:56 PM 63.0 °F - 45.9 °F 54% 30.09 in 7.0 mi East 6.9 mph - N/A   Clear
7:56 PM 54.0 °F - 45.9 °F 74% 30.11 in 9.0 mi East 6.9 mph - N/A   Clear
8:56 PM 50.9 °F - 45.9 °F 83% 30.11 in 8.0 mi ESE 6.9 mph - N/A   Clear
9:56 PM 48.9 °F - 45.0 °F 86% 30.13 in 9.0 mi SE 5.8 mph - N/A   Clear
10:56 PM 46.9 °F - 43.9 °F 89% 30.13 in 8.0 mi ESE 5.8 mph - N/A   Clear
11:56 PM 43.9 °F 40.5 °F 43.0 °F 97% 30.14 in 8.0 mi ESE 5.8 mph - N/A   Clear